This is the latest recevied weather packets stored in our database for station/object W5CMS-13. If no packets are shown the sender has not sent any weather packets the latest 10 day(s).
| Time | Temp. | Humidity | Pressure | Rain* | Wind** | Luminosity | Snow |
|---|---|---|---|---|---|---|---|
| 1777734617 | 19.44° C | 53% | 1021.3 hPa | 0 mm | - | - | - |
| 1777734017 | 18.89° C | 55% | 1021.4 hPa | 0 mm | - | - | - |
| 1777733417 | 18.33° C | 55% | 1021.3 hPa | 0 mm | - | - | - |
| 1777732818 | 17.78° C | 58% | 1021.2 hPa | 0 mm | - | - | - |
| 1777732217 | 17.78° C | 59% | 1021.1 hPa | 0 mm | - | - | - |
| 1777731617 | 17.22° C | 60% | 1021 hPa | 0 mm | - | - | - |
| 1777731037 | 17.22° C | 64% | 1021 hPa | 0 mm | - | - | - |
| 1777730417 | 16.67° C | 67% | 1020.9 hPa | 0 mm | - | - | - |
| 1777729817 | 16.11° C | 68% | 1020.7 hPa | 0 mm | - | - | - |
| 1777729218 | 15.56° C | 70% | 1020.8 hPa | 0 mm | - | - | - |
| 1777728617 | 15° C | 72% | 1020.6 hPa | 0 mm | - | - | - |
| 1777728018 | 14.44° C | 75% | 1020.6 hPa | 0 mm | - | - | - |
| 1777727417 | 13.89° C | 78% | 1020.5 hPa | 0 mm | - | - | - |
| 1777726817 | 13.33° C | 80% | 1020.4 hPa | 0 mm | - | - | - |
| 1777726217 | 12.78° C | 83% | 1020.2 hPa | 0 mm | - | - | - |
| 1777725617 | 12.22° C | 86% | 1019.9 hPa | 0 mm | - | - | - |
| 1777725018 | 11.67° C | 90% | 1019.9 hPa | 0 mm | - | - | - |
| 1777724418 | 10.56° C | 93% | 1019.5 hPa | 0 mm | - | - | - |
| 1777723817 | 10° C | 94% | 1019.3 hPa | 0 mm | - | - | - |
| 1777723217 | 10° C | 94% | 1019.1 hPa | 0 mm | - | - | - |
| 1777722617 | 9.44° C | 93% | 1019 hPa | 0 mm | - | - | - |
| 1777722018 | 10° C | 93% | 1018.9 hPa | 0 mm | - | - | - |
| 1777721420 | 10° C | 93% | 1018.8 hPa | 0 mm | - | - | - |
| 1777720817 | 10.56° C | 93% | 1018.6 hPa | 0 mm | - | - | - |
| 1777720217 | 10.56° C | 93% | 1018.5 hPa | 0 mm | - | - | - |
* Rain latest hour (hover to see other rain measurements)
** Current wind speed in m/s (hover to see current wind gust speed)